Weather History for Peoria, IL

Change the Weather History Date:

Sunday, October 9, 2011

  Actual Average Record
Temperature  
Mean Temperature 66 °F 56 °F  
Max Temperature 80 °F 67 °F 86 °F (1938)
Min Temperature 52 °F 45 °F 26 °F (1915)
Degree Days  
Heating Degree Days 0 9  
Month to date heating degree days 34 74  
Since 1 July heating degree days 168 164  
Cooling Degree Days 1 1  
Month to date cooling degree days 14 9  
Year to date cooling degree days 1263 1033  
Growing Degree Days 16 (Base 50)    
Moisture  
Dew Point 47 °F    
Average Humidity 57    
Maximum Humidity 89    
Minimum Humidity 25    
Precipitation  
Precipitation 0.00 in 0.09 in 1.71 in (1936)
Month to date precipitation 0.00 0.79  
Year to date precipitation 31.62 28.89  
Snow  
Snow 0.00 in 0.00 in T in (1906)
Month to date snowfall 0.0 0.0  
Since 1 July snowfall 0.0 0.0  
Since 1 September snowfall 0.0 0.0  
Snow Depth 0.00 in    
Sea Level Pressure  
Sea Level Pressure 30.26 in    
Wind  
Wind Speed 3 mph (ESE)    
Max Wind Speed 13 mph    
Max Gust Speed 21 mph    
Visibility 10 miles    
Events      
T = Trace of Precipitation, MM = Missing Value Source: NWS Daily Summary

Daily Weather History Graph

Daily Weather History Graph

Search for Another Location

Airport:

Trip Planner

Search our weather history database for the weather conditions in past years. The results will help you decide how hot, cold, wet, or windy it might be!

Date:

Astronomy

Oct. 09, 2011 Rise Set
Actual Time 7:03 AM CDT 6:28 PM CDT
Civil Twilight 6:35 AM CDT 6:55 PM CDT
Nautical Twilight 6:04 AM CDT 7:27 PM CDT
Astronomical Twilight 5:32 AM CDT 7:58 PM CDT
Moon 5:05 PM CDT (10/9) 4:47 AM CDT (10/9)
Length of Visible Light 12h 19m
Length of Day
11h 25m
Waxing Gibbous, 95% of the Moon is Illuminated
Oct 9
Waxing Gibbous
Oct 11
Full
Oct 19
Last Quarter
Oct 26
New
Nov 2
First Quarter

Hourly Weather History & Observations

Time (CDT) Temp. Dew Point Humidity Pressure Visibility Wind Dir Wind Speed Gust Speed Precip Events Conditions
12:54 AM 62.1 °F 48.9 °F 62% 30.27 in 10.0 mi Calm Calm - N/A   Clear
1:54 AM 60.1 °F 48.9 °F 67% 30.28 in 10.0 mi South 4.6 mph - N/A   Clear
2:54 AM 57.0 °F 50.0 °F 77% 30.29 in 10.0 mi Calm Calm - N/A   Clear
3:54 AM 55.4 °F 51.8 °F 88% 30.30 in 10.0 mi Calm Calm - N/A   Clear
4:54 AM 54.0 °F 50.0 °F 86% 30.30 in 10.0 mi East 3.5 mph - N/A   Clear
5:54 AM 55.0 °F 50.0 °F 83% 30.31 in 10.0 mi ENE 3.5 mph - N/A   Clear
6:54 AM 52.0 °F 48.9 °F 89% 30.32 in 10.0 mi NE 3.5 mph - N/A   Clear
7:54 AM 55.0 °F 50.0 °F 83% 30.33 in 10.0 mi ENE 3.5 mph - N/A   Clear
8:54 AM 62.1 °F 51.1 °F 67% 30.33 in 10.0 mi East 3.5 mph - N/A   Clear
9:54 AM 66.9 °F 52.0 °F 59% 30.34 in 10.0 mi SSE 3.5 mph - N/A   Clear
10:54 AM 72.0 °F 52.0 °F 49% 30.34 in 10.0 mi SSE 3.5 mph - N/A   Clear
11:54 AM 75.0 °F 52.0 °F 44% 30.32 in 10.0 mi Variable 3.5 mph - N/A   Clear
12:54 PM 78.1 °F 48.9 °F 36% 30.28 in 10.0 mi East 9.2 mph - N/A   Clear
1:54 PM 79.0 °F 43.0 °F 28% 30.25 in 10.0 mi Variable 4.6 mph - N/A   Clear
2:54 PM 80.6 °F 42.8 °F 26% 30.23 in 10.0 mi SE 6.9 mph - N/A   Clear
3:54 PM 80.1 °F 42.1 °F 26% 30.21 in 10.0 mi SE 9.2 mph 18.4 mph N/A   Clear
4:54 PM 79.0 °F 39.9 °F 25% 30.20 in 10.0 mi SE 8.1 mph - N/A   Clear
5:54 PM 75.9 °F 39.0 °F 26% 30.19 in 10.0 mi SE 3.5 mph - N/A   Clear
6:54 PM 69.1 °F 42.1 °F 38% 30.19 in 10.0 mi ESE 3.5 mph - N/A   Clear
7:54 PM 64.0 °F 44.1 °F 48% 30.19 in 10.0 mi Calm Calm - N/A   Clear
8:54 PM 60.1 °F 45.0 °F 57% 30.20 in 10.0 mi Calm Calm - N/A   Clear
9:54 PM 60.1 °F 44.1 °F 55% 30.20 in 10.0 mi East 3.5 mph - N/A   Clear
10:54 PM 57.9 °F 43.0 °F 58% 30.20 in 10.0 mi Calm Calm - N/A   Clear
11:54 PM 59.0 °F 43.0 °F 55% 30.19 in 10.0 mi Calm Calm - N/A   Clear